Regional Weather Roundup
Issued by NWS Albany, NY

Home | Current Version | Previous Version | Text Only | Print | Product List | Glossary On
Versions: 1 2 3 4 5 6 7 8 9 10 11 12 13 14 15 16 17 18 19 20 21 22 23 24 25 26 27 28 29 30 31 32 33 34 35 36 37 38 39 40 41 42 43 44 45 46 47 48 49 50
000
ASUS41 KALY 290210
RWRALY

NEW YORK STATE HOURLY WEATHER ROUNDUP
NATIONAL WEATHER SERVICE ALBANY NY
1000 PM EDT THU JUL 28 2016

NOTE: "FAIR" INDICATES FEW OR NO CLOUDS BELOW 12,000 FEET WITH NO
SIGNIFICANT WEATHER AND/OR NO OBSTRUCTIONS TO VISIBILITY.

NYZ032-033-038>043-046>054-057>066-NYZ062>081-082-084-290300-
EAST


CITY           SKY/WX    TMP DP  RH WIND       PRES   REMARKS
ALBANY         CLOUDY    76  65  68 NE7       29.87R
GLENS FALLS    CLOUDY    70  66  87 N5        29.89S
POUGHKEEPSIE   CLOUDY    77  69  76 CALM      29.88R
NEWBURGH       MOCLDY    73  72  94 NW8       29.91R
MONTGOMERY     CLOUDY    73  70  90 W3        29.90R
WHITE PLAINS   DRIZZLE   78  69  73 CALM      29.89R
ISLIP          LGT RAIN  79  70  74 SW6       29.88R
NEW YORK CITY  CLOUDY    82  66  58 W6        29.86S
CENTRAL PARK   CLOUDY    79  67  66 VRB3      29.90S HAZE
$$

NYZ005>009-017-018-044>046-055-056-290300-
CENTRAL


CITY           SKY/WX    TMP DP  RH WIND       PRES   REMARKS
FULTON         CLOUDY    72  65  78 CALM      29.90R
SYRACUSE       CLOUDY    72  65  78 N3        29.89R
ROME           CLOUDY    71  66  84 CALM      29.90R
ELMIRA         CLOUDY    76  64  66 E6        29.90R
BINGHAMTON       N/A     74  64  71 NE6       29.93R
MONTICELLO     CLOUDY    70  66  88 CALM      29.95R
$$

NYZ026>034-041>043-087-290300-
NORTH


CITY           SKY/WX    TMP DP  RH WIND       PRES   REMARKS
WATERTOWN      CLOUDY    71  66  84 NE5       29.90R
FORT DRUM      NOT AVBL
MASSENA        CLOUDY    68  64  87 CALM      29.90S
SARANAC LAKE   CLOUDY    66  64  93 NE3       29.95R
PLATTSBURGH    CLOUDY    68  67  96 CALM      29.90S FOG
$$

NYZ001>004-010>016-019>021-085-290300-
WEST


CITY           SKY/WX    TMP DP  RH WIND       PRES   REMARKS
NIAGARA FALLS  CLOUDY    77  61  57 CALM      29.91R
BUFFALO        CLOUDY    76  61  59 NE3       29.91R
DUNKIRK        CLOUDY    71  66  84 CALM      29.91R
JAMESTOWN      CLOUDY    72  61  68 CALM      29.96R
WELLSVILLE     CLOUDY    72  65  78 N5        29.98R
ROCHESTER      CLOUDY    74  60  61 CALM      29.90R
PENN YAN       MOCLDY    73  59  61 CALM      29.92R
$$

             KEY
       WCI = WIND CHILL INDEX
       VSB = VISIBILITY
       HX  = HEAT INDEX
$$



USA.gov is the U.S. government's official web portal to all federal, state and local government web resources and services.